{"data":{"norad_id":52862,"intl_designator":"2022-062AJ","name":"STARLINK-4010","alt_names":[],"object_type":"PAYLOAD","status":"ACTIVE","operator":null,"country":"US","launch_date":"2022-06-17","launch_site_code":"AFETR","launch_vehicle":null,"mission":null,"orbit_class":"UNKNOWN","rcs_meters":null,"size_class":null,"mass_kg":null,"dimensions":null,"purposes":["comms"],"wikipedia_slug":null,"has_3d_model":false,"image_url":null,"decayed_at":null,"tle_current":{"epoch":"2026-09-20T04:06:59.709024Z","epoch_age_seconds":97306,"freshness":"FRESH","line1":"1 52862U 22062AJ  26263.17152441  .00001668  00000+0  60515-4 0  9990","line2":"2 52862  53.1598 215.1450 0001341  92.4867 267.6289 15.34392985235503","mean_motion":15.34392985,"eccentricity":0.0001341,"inclination_deg":53.1598,"raan_deg":215.145,"arg_perigee_deg":92.4867,"mean_anomaly_deg":267.6289,"bstar":6.0515e-5,"rev_number":23550,"period_min":93.848187138316,"perigee_km":461.80673087267,"apogee_km":463.6414498171,"semimajor_km":6840.8610903449,"source":"CELESTRAK","updated_at":"2026-09-20T09:00:40.117319Z"}}}